Regional Weather Roundup
Issued by NWS Charleston, WV

Home | Current Version | Previous Version | Text Only | Print | Product List | Glossary Off
Versions: 1 2 3 4 5 6 7 8 9 10 11 12 13 14 15 16 17 18 19 20 21 22 23 24 25 26 27 28 29 30 31 32 33 34 35 36 37 38 39 40 41 42 43 44 45 46 47 48 49 50

000
ASUS41 KRLX 221410
RWRRLX
West Virginia Regional Weather Roundup
National Weather Service Charleston WV
1000 AM EDT TUE JUL 22 2014

Note: "fair" indicates few or no clouds below 12,000 feet with no
significant weather and/or obstructions to visibility.

WVZ003-221500-
Northern Panhandle of West Virginia

CITY           SKY/WX    TMP DP  RH WIND       PRES   REMARKS
WHEELING       SUNNY     77  68  73 SW7       30.17S
$$

WVZ009-221500-
Northwest West Virginia

CITY           SKY/WX    TMP DP  RH WIND       PRES   REMARKS
PARKERSBURG    SUNNY    N/A N/A N/A SW8       30.17F
$$

WVZ006-221500-
Western West Virginia

CITY           SKY/WX    TMP DP  RH WIND       PRES   REMARKS
HUNTINGTON     SUNNY     77  69  76 S6        30.14F
$$

WVZ015-221500-
West Central West Virginia

CITY           SKY/WX    TMP DP  RH WIND       PRES   REMARKS
CHARLESTON     SUNNY     80  69  69 S6        30.16F
$$

WVZ031-221500-
North Central West Virginia

CITY           SKY/WX    TMP DP  RH WIND       PRES   REMARKS
CLARKSBURG     SUNNY     77  67  71 S6        30.18F
MORGANTOWN     SUNNY     79  66  64 S6        30.18F
$$

WVZ035-042-045-221500-
South Central West Virginia

CITY           SKY/WX    TMP DP  RH WIND       PRES   REMARKS
BECKLEY        MOSUNNY   74  65  73 S8        30.26S
BLUEFIELD      MOSUNNY   74  63  68 VRB6      30.28S
LEWISBURG      CLOUDY    73  67  83 CALM      30.26S
$$

WVZ047-221500-
Northern Mountains of West Virginia

CITY           SKY/WX    TMP DP  RH WIND       PRES   REMARKS
ELKINS         SUNNY     73  66  78 VRB3      30.24F
$$

WVZ052-221500-
Eastern Panhandle of West Virginia

CITY           SKY/WX    TMP DP  RH WIND       PRES   REMARKS
MARTINSBURG    PTSUNNY   79  68  69 S6        30.19F
PETERSBURG     MOSUNNY   76  62  61 CALM      30.19F
$$



USA.gov is the U.S. government's official web portal to all federal, state and local government web resources and services.